When you browse on this site, cookies collect data to enhance your experience and personalize the content and advertising you see.
Visit our Privacy Policy to learn more. By continuing to use the site, you agree to this use of cookies and data.
  • In Österreich
  • Länderverzeichnis
  • Für 7 Tage
  • Wassertemperatur
  • Satellitenkarten
  • Wetterkarte
  • News
  • Widgets
  • user-avatar
    Anmelden

    Stündliche Wetter Rohizky

    Heute, 24 April, Mittwoch

    Zeit Temperatur Niederschläge Wind Luftdruck Luftfeuchtigkeit
    00:00 +11°C° 0 mm 0 m/S 759 mmHg 48%
    01:00 +10°C° 0 mm 0 m/S 759 mmHg 49%
    02:00 +11°C° 0 mm 1 m/S 759 mmHg 44%
    03:00 +11°C° 0 mm 1 m/S 759 mmHg 46%
    04:00 +11°C° 0 mm 1 m/S 759 mmHg 49%
    05:00 +10°C° 0 mm 1 m/S 759 mmHg 52%
    06:00 +12°C° 0 mm 1 m/S 759 mmHg 49%
    07:00 +14°C° 0 mm 1 m/S 759 mmHg 47%
    08:00 +16°C° 0 mm 1 m/S 760 mmHg 44%
    09:00 +19°C° 0 mm 1 m/S 760 mmHg 39%
    10:00 +20°C° 0 mm 1 m/S 760 mmHg 34%
    11:00 +22°C° 0 mm 1 m/S 760 mmHg 29%
    12:00 +22°C° 0 mm 1 m/S 759 mmHg 28%
    13:00 +23°C° 0 mm 1 m/S 759 mmHg 27%
    14:00 +23°C° 0 mm 1 m/S 759 mmHg 27%
    15:00 +23°C° 0 mm 1 m/S 759 mmHg 29%
    16:00 +22°C° 0 mm 1 m/S 759 mmHg 32%
    17:00 +22°C° 0 mm 1 m/S 758 mmHg 34%
    18:00 +20°C° 0 mm 1 m/S 758 mmHg 37%
    19:00 +18°C° 0 mm 1 m/S 758 mmHg 41%
    20:00 +15°C° 0 mm 1 m/S 758 mmHg 44%
    21:00 +13°C° 0 mm 0 m/S 758 mmHg 45%
    22:00 +13°C° 0 mm 0 m/S 758 mmHg 46%
    23:00 +12°C° 0 mm 0 m/S 759 mmHg 47%

    Morgen, 25 April, Donnerstag

    Zeit Temperatur Niederschläge Wind Luftdruck Luftfeuchtigkeit
    00:00 +12°C° 0 mm 0 m/S 759 mmHg 48%
    01:00 +12°C° 0 mm 0 m/S 759 mmHg 49%
    02:00 +11°C° 0 mm 0 m/S 759 mmHg 50%
    03:00 +11°C° 0 mm 0 m/S 759 mmHg 51%
    04:00 +11°C° 0 mm 0 m/S 759 mmHg 53%
    05:00 +10°C° 0 mm 0 m/S 759 mmHg 55%
    06:00 +12°C° 0 mm 0 m/S 759 mmHg 52%
    07:00 +14°C° 0 mm 0 m/S 759 mmHg 48%
    08:00 +16°C° 0 mm 0 m/S 759 mmHg 45%
    09:00 +19°C° 0 mm 1 m/S 759 mmHg 41%
    10:00 +21°C° 0 mm 1 m/S 759 mmHg 37%
    11:00 +21°C° 0 mm 2 m/S 759 mmHg 33%
    12:00 +23°C° 0 mm 2 m/S 758 mmHg 33%
    13:00 +22°C° 0 mm 3 m/S 758 mmHg 33%
    14:00 +22°C° 0 mm 3 m/S 758 mmHg 33%
    15:00 +22°C° 0 mm 3 m/S 757 mmHg 37%
    16:00 +21°C° 0 mm 3 m/S 757 mmHg 40%
    17:00 +21°C° 0 mm 2 m/S 757 mmHg 44%
    18:00 +19°C° 0 mm 2 m/S 756 mmHg 48%
    19:00 +17°C° 0 mm 2 m/S 756 mmHg 52%
    20:00 +15°C° 0 mm 1 m/S 756 mmHg 56%
    21:00 +15°C° 0 mm 1 m/S 756 mmHg 56%
    22:00 +14°C° 0 mm 1 m/S 756 mmHg 57%
    23:00 +14°C° 0 mm 1 m/S 756 mmHg 58%

    übermorgen, 26 April, Freitag

    Zeit Temperatur Niederschläge Wind Luftdruck Luftfeuchtigkeit
    00:00 +13°C° 0 mm 1 m/S 756 mmHg 60%
    01:00 +13°C° 0 mm 1 m/S 756 mmHg 61%
    02:00 +12°C° 0 mm 1 m/S 756 mmHg 63%
    03:00 +12°C° 0 mm 1 m/S 756 mmHg 64%
    04:00 +12°C° 0 mm 1 m/S 756 mmHg 66%
    05:00 +12°C° 0 mm 2 m/S 755 mmHg 67%
    06:00 +14°C° 0 mm 2 m/S 755 mmHg 63%
    07:00 +16°C° 0 mm 2 m/S 755 mmHg 59%
    08:00 +17°C° 0 mm 2 m/S 755 mmHg 55%
    09:00 +19°C° 0 mm 3 m/S 755 mmHg 50%
    10:00 +20°C° 0 mm 4 m/S 755 mmHg 45%
    11:00 +22°C° 0 mm 4 m/S 755 mmHg 40%
    12:00 +22°C° 0 mm 4 m/S 755 mmHg 40%
    13:00 +22°C° 0 mm 4 m/S 754 mmHg 40%
    14:00 +22°C° 0 mm 5 m/S 754 mmHg 40%
    15:00 +22°C° 0 mm 4 m/S 753 mmHg 43%
    16:00 +21°C° 0 mm 4 m/S 753 mmHg 46%
    17:00 +21°C° 0 mm 3 m/S 753 mmHg 49%
    18:00 +19°C° 0 mm 3 m/S 753 mmHg 53%
    19:00 +17°C° 0 mm 3 m/S 753 mmHg 58%
    20:00 +15°C° 0 mm 2 m/S 753 mmHg 62%
    21:00 +15°C° 0 mm 2 m/S 752 mmHg 62%
    22:00 +13°C° 0 mm 3 m/S 752 mmHg 62%
    23:00 +12°C° 0 mm 3 m/S 752 mmHg 62%

    27 April, Samstag

    Zeit Temperatur Niederschläge Wind Luftdruck Luftfeuchtigkeit
    00:00 +12°C° 0 mm 3 m/S 752 mmHg 62%
    01:00 +11°C° 0 mm 3 m/S 751 mmHg 62%
    02:00 +11°C° 0 mm 3 m/S 751 mmHg 62%
    03:00 +11°C° 0 mm 3 m/S 751 mmHg 64%
    04:00 +10°C° 0 mm 3 m/S 750 mmHg 66%
    05:00 +10°C° 0 mm 3 m/S 750 mmHg 68%
    06:00 +12°C° 0 mm 4 m/S 750 mmHg 66%
    07:00 +13°C° 0 mm 5 m/S 750 mmHg 64%
    08:00 +15°C° 0 mm 5 m/S 749 mmHg 61%
    09:00 +16°C° 0 mm 6 m/S 749 mmHg 57%
    10:00 +19°C° 0 mm 6 m/S 749 mmHg 53%
    11:00 +20°C° 0 mm 6 m/S 749 mmHg 48%
    12:00 +19°C° 0.3 mm 5 m/S 748 mmHg 55%
    13:00 +18°C° 0.3 mm 4 m/S 748 mmHg 61%
    14:00 +15°C° 0.3 mm 4 m/S 747 mmHg 68%
    15:00 +17°C° 0.2 mm 4 m/S 747 mmHg 66%
    16:00 +18°C° 0.2 mm 4 m/S 747 mmHg 64%
    17:00 +19°C° 0.2 mm 4 m/S 746 mmHg 61%
    18:00 +18°C° 0 mm 4 m/S 746 mmHg 67%
    19:00 +17°C° 0 mm 4 m/S 746 mmHg 72%
    20:00 +14°C° 0 mm 4 m/S 745 mmHg 77%
    21:00 +14°C° 0.2 mm 4 m/S 745 mmHg 79%
    22:00 +14°C° 0.2 mm 4 m/S 745 mmHg 80%
    23:00 +13°C° 0.2 mm 4 m/S 745 mmHg 82%

    28 April, Sonntag

    Zeit Temperatur Niederschläge Wind Luftdruck Luftfeuchtigkeit
    00:00 +13°C° 0.2 mm 4 m/S 745 mmHg 83%
    01:00 +13°C° 0.2 mm 4 m/S 745 mmHg 85%
    02:00 +13°C° 0.2 mm 4 m/S 744 mmHg 86%
    03:00 +13°C° 0.1 mm 4 m/S 744 mmHg 88%
    04:00 +13°C° 0.1 mm 3 m/S 744 mmHg 90%
    05:00 +13°C° 0.1 mm 3 m/S 744 mmHg 92%
    06:00 +14°C° 0 mm 3 m/S 744 mmHg 88%
    07:00 +16°C° 0 mm 3 m/S 744 mmHg 85%
    08:00 +18°C° 0 mm 4 m/S 744 mmHg 82%
    09:00 +19°C° 0.1 mm 4 m/S 744 mmHg 76%
    10:00 +21°C° 0.1 mm 4 m/S 744 mmHg 71%
    11:00 +22°C° 0.1 mm 5 m/S 745 mmHg 66%
    12:00 +22°C° 2.8 mm 4 m/S 744 mmHg 68%
    13:00 +21°C° 2.8 mm 4 m/S 744 mmHg 70%
    14:00 +21°C° 2.8 mm 3 m/S 744 mmHg 73%
    15:00 +20°C° 0.8 mm 2 m/S 745 mmHg 76%
    16:00 +19°C° 0.8 mm 2 m/S 745 mmHg 79%
    17:00 +20°C° 0.8 mm 1 m/S 745 mmHg 82%
    18:00 +18°C° 0 mm 3 m/S 745 mmHg 84%
    19:00 +17°C° 0 mm 4 m/S 746 mmHg 85%
    20:00 +15°C° 0 mm 5 m/S 746 mmHg 87%
    21:00 +14°C° 0 mm 6 m/S 747 mmHg 86%
    22:00 +13°C° 0 mm 6 m/S 747 mmHg 86%
    23:00 +11°C° 0 mm 6 m/S 747 mmHg 85%

    29 April, Montag

    Zeit Temperatur Niederschläge Wind Luftdruck Luftfeuchtigkeit
    00:00 +10°C° 0 mm 6 m/S 748 mmHg 84%
    01:00 +9°C° 0 mm 6 m/S 748 mmHg 83%
    02:00 +8°C° 0 mm 6 m/S 748 mmHg 83%
    03:00 +8°C° 0 mm 6 m/S 749 mmHg 81%
    04:00 +8°C° 0 mm 6 m/S 749 mmHg 79%
    05:00 +7°C° 0 mm 6 m/S 750 mmHg 77%
    06:00 +6°C° 0 mm 7 m/S 750 mmHg 74%
    07:00 +6°C° 0 mm 7 m/S 750 mmHg 70%
    08:00 +6°C° 0 mm 7 m/S 751 mmHg 67%
    09:00 +8°C° 0 mm 7 m/S 751 mmHg 64%
    10:00 +9°C° 0 mm 7 m/S 751 mmHg 61%
    11:00 +10°C° 0 mm 7 m/S 752 mmHg 57%
    12:00 +11°C° 0 mm 7 m/S 752 mmHg 56%
    13:00 +11°C° 0 mm 7 m/S 752 mmHg 54%
    14:00 +13°C° 0 mm 6 m/S 752 mmHg 52%
    15:00 +11°C° 0 mm 6 m/S 752 mmHg 53%
    16:00 +11°C° 0 mm 6 m/S 752 mmHg 54%
    17:00 +11°C° 0 mm 6 m/S 752 mmHg 55%
    18:00 +9°C° 0 mm 5 m/S 753 mmHg 58%
    19:00 +8°C° 0 mm 5 m/S 753 mmHg 61%
    20:00 +7°C° 0 mm 5 m/S 753 mmHg 63%
    21:00 +6°C° 0 mm 5 m/S 754 mmHg 62%
    22:00 +6°C° 0 mm 5 m/S 754 mmHg 60%
    23:00 +5°C° 0 mm 5 m/S 754 mmHg 58%
    Mehr zeigen